"read_dt","SO2 (ppb)","flags","PMT voltage (V)","lamp voltage (V)","lamp intensity (Hz)","internal temp (C)","react chamber temp (C)","sample flow (l/min)","pres (mmHg)","SO2 bkg (ppb)","SO2 coefficient"
2014-09-28 00:00:00,1775E-3,5C000000,-0724,0827,12072,025.3,045.4,0.481,732.4,01.19,0.508
2014-09-28 00:01:00,1728E-3,5C000000,-0724,0827,12324,025.3,045.4,0.480,732.5,01.19,0.508
2014-09-28 00:02:00,1744E-3,5C000000,-0724,0826,12173,025.3,045.4,0.481,732.5,01.19,0.508
2014-09-28 00:03:00,1812E-3,5C000000,-0724,0828,12268,025.3,045.4,0.480,732.6,01.19,0.508
2014-09-28 00:04:00,1775E-3,5C000000,-0724,0828,12237,025.4,045.4,0.480,732.5,01.19,0.508
2014-09-28 00:05:00,1772E-3,5C000000,-0724,0828,12368,025.3,045.4,0.480,732.6,01.19,0.508
2014-09-28 00:06:00,1744E-3,5C000000,-0724,0827,12276,025.3,045.4,0.480,732.4,01.19,0.508
2014-09-28 00:07:00,1880E-3,5C000000,-0724,0826,12305,025.3,045.4,0.480,732.5,01.19,0.508
2014-09-28 00:08:00,1913E-3,5C000000,-0724,0827,12119,025.4,045.4,0.480,732.6,01.19,0.508
2014-09-28 00:09:00,1840E-3,5C000000,-0724,0827,12195,025.3,045.4,0.481,732.5,01.19,0.508
2014-09-28 00:10:00,1785E-3,5C000000,-0724,0828,11935,025.4,045.4,0.480,732.6,01.19,0.508
2014-09-28 00:11:00,1770E-3,5C000000,-0724,0828,12194,025.3,045.4,0.481,732.5,01.19,0.508
2014-09-28 00:12:00,1671E-3,5C000000,-0724,0827,11996,025.3,045.4,0.480,732.6,01.19,0.508
2014-09-28 00:13:00,1717E-3,5C000000,-0724,0828,12373,025.3,045.4,0.481,732.6,01.19,0.508
2014-09-28 00:14:00,1871E-3,5C000000,-0724,0828,12303,025.3,045.4,0.480,732.7,01.19,0.508
2014-09-28 00:15:00,1754E-3,5C000000,-0724,0828,12364,025.3,045.4,0.481,732.6,01.19,0.508
2014-09-28 00:16:00,1798E-3,5C000000,-0724,0828,12173,025.3,045.4,0.480,732.6,01.19,0.508
2014-09-28 00:17:00,1681E-3,5C000000,-0724,0828,12091,025.3,045.4,0.481,732.6,01.19,0.508
2014-09-28 00:18:00,1818E-3,5C000000,-0724,0829,12184,025.3,045.4,0.480,732.6,01.19,0.508
2014-09-28 00:19:00,1687E-3,5C000000,-0724,0827,12225,025.3,045.4,0.481,732.6,01.19,0.508
2014-09-28 00:20:00,1769E-3,5C000000,-0724,0827,12224,025.3,045.4,0.480,732.5,01.19,0.508
2014-09-28 00:21:00,1825E-3,5C000000,-0724,0828,12309,025.3,045.4,0.481,732.6,01.19,0.508
2014-09-28 00:22:00,1764E-3,5C000000,-0724,0829,12444,025.3,045.4,0.480,732.6,01.19,0.508
2014-09-28 00:23:00,1744E-3,5C000000,-0724,0828,12340,025.3,045.4,0.481,732.6,01.19,0.508
2014-09-28 00:24:00,1762E-3,5C000000,-0724,0829,12103,025.3,045.4,0.480,732.7,01.19,0.508
2014-09-28 00:25:00,1834E-3,5C000000,-0724,0829,12246,025.3,045.4,0.480,732.6,01.19,0.508
2014-09-28 00:26:00,1881E-3,5C000000,-0724,0828,12400,025.3,045.4,0.480,732.6,01.19,0.508
2014-09-28 00:27:00,1821E-3,5C000000,-0724,0827,12189,025.3,045.4,0.480,732.6,01.19,0.508
2014-09-28 00:28:00,1651E-3,5C000000,-0724,0827,12365,025.3,045.4,0.481,732.6,01.19,0.508
2014-09-28 00:29:00,1829E-3,5C000000,-0724,0829,12261,025.3,045.4,0.480,732.6,01.19,0.508
2014-09-28 00:30:00,1919E-3,5C000000,-0724,0828,12087,025.3,045.4,0.480,732.5,01.19,0.508
2014-09-28 00:31:00,1761E-3,5C000000,-0724,0828,12284,025.3,045.4,0.480,732.5,01.19,0.508
2014-09-28 00:32:00,1821E-3,5C000000,-0724,0828,12274,025.3,045.4,0.481,732.5,01.19,0.508
2014-09-28 00:33:00,1691E-3,5C000000,-0724,0828,12174,025.3,045.4,0.480,732.5,01.19,0.508
2014-09-28 00:34:00,1849E-3,5C000000,-0724,0827,12280,025.3,045.4,0.481,732.5,01.19,0.508
2014-09-28 00:35:00,1950E-3,5C000000,-0724,0828,12195,025.3,045.4,0.480,732.6,01.19,0.508
2014-09-28 00:36:00,1812E-3,5C000000,-0724,0828,12217,025.3,045.4,0.481,732.6,01.19,0.508
2014-09-28 00:37:00,1823E-3,5C000000,-0724,0828,12185,025.3,045.4,0.480,732.5,01.19,0.508
2014-09-28 00:38:00,1726E-3,5C000000,-0724,0828,11987,025.3,045.4,0.480,732.6,01.19,0.508
2014-09-28 00:39:00,1845E-3,5C000000,-0724,0828,12194,025.3,045.4,0.481,732.5,01.19,0.508
2014-09-28 00:40:00,1763E-3,5C000000,-0724,0828,12218,025.3,045.4,0.480,732.6,01.19,0.508
2014-09-28 00:41:00,1795E-3,5C000000,-0724,0828,12290,025.3,045.4,0.481,732.6,01.19,0.508
2014-09-28 00:42:00,1865E-3,5C000000,-0724,0828,12397,025.3,045.4,0.480,732.7,01.19,0.508
2014-09-28 00:43:00,1767E-3,5C000000,-0724,0827,12265,025.3,045.4,0.481,732.6,01.19,0.508
2014-09-28 00:44:00,1777E-3,5C000000,-0724,0828,12288,025.3,045.4,0.480,732.7,01.19,0.508
2014-09-28 00:45:00,1760E-3,5C000000,-0724,0827,12222,025.3,045.4,0.481,732.6,01.19,0.508
2014-09-28 00:46:00,1743E-3,5C000000,-0724,0827,12260,025.3,045.4,0.480,732.6,01.19,0.508
2014-09-28 00:47:00,1772E-3,5C000000,-0724,0828,12201,025.3,045.4,0.481,732.6,01.19,0.508
2014-09-28 00:48:00,1892E-3,5C000000,-0724,0827,12078,025.3,045.4,0.480,732.5,01.19,0.508
2014-09-28 00:49:00,1800E-3,5C000000,-0724,0828,12269,025.3,045.4,0.481,732.6,01.19,0.508
2014-09-28 00:50:00,1875E-3,5C000000,-0724,0827,12171,025.3,045.4,0.480,732.5,01.19,0.508
2014-09-28 00:51:00,1747E-3,5C000000,-0724,0828,12249,025.3,045.4,0.481,732.6,01.19,0.508
2014-09-28 00:52:00,1733E-3,5C000000,-0724,0827,12187,025.3,045.4,0.481,732.7,01.19,0.508
2014-09-28 00:53:00,1813E-3,5C000000,-0724,0828,12169,025.3,045.4,0.480,732.6,01.19,0.508
2014-09-28 00:54:00,1761E-3,5C000000,-0724,0827,12257,025.3,045.4,0.481,732.6,01.19,0.508
2014-09-28 00:55:00,1863E-3,5C000000,-0724,0828,12333,025.3,045.4,0.480,732.6,01.19,0.508
2014-09-28 00:56:00,1751E-3,5C000000,-0724,0828,12311,025.3,045.4,0.481,732.6,01.19,0.508
2014-09-28 00:57:00,1742E-3,5C000000,-0724,0827,12290,025.3,045.4,0.480,732.6,01.19,0.508
2014-09-28 00:58:00,1803E-3,5C000000,-0724,0828,12262,025.3,045.4,0.481,732.6,01.19,0.508
2014-09-28 00:59:00,1619E-3,5C000000,-0724,0827,12270,025.3,045.4,0.480,732.7,01.19,0.508
2014-09-28 01:00:00,1820E-3,5C000000,-0724,0828,12123,025.3,045.4,0.481,732.7,01.19,0.508
2014-09-28 01:01:00,1736E-3,5C000000,-0724,0829,12299,025.3,045.4,0.480,732.7,01.19,0.508
2014-09-28 01:02:00,1742E-3,5C000000,-0724,0828,12112,025.3,045.4,0.481,732.7,01.19,0.508
2014-09-28 01:03:00,1757E-3,5C000000,-0724,0827,12355,025.3,045.4,0.480,732.7,01.19,0.508
2014-09-28 01:04:00,1869E-3,5C000000,-0724,0827,12132,025.3,045.4,0.481,732.7,01.19,0.508
2014-09-28 01:05:00,1667E-3,5C000000,-0724,0827,12094,025.3,045.4,0.480,732.7,01.19,0.508
2014-09-28 01:06:00,1787E-3,5C000000,-0724,0826,12151,025.3,045.4,0.481,732.7,01.19,0.508
2014-09-28 01:07:00,1776E-3,5C000000,-0724,0828,12189,025.3,045.4,0.480,732.7,01.19,0.508
2014-09-28 01:08:00,1721E-3,5C000000,-0724,0828,12285,025.3,045.4,0.481,732.7,01.19,0.508
2014-09-28 01:09:00,1931E-3,5C000000,-0724,0828,12237,025.3,045.4,0.480,732.8,01.19,0.508
2014-09-28 01:10:00,1805E-3,5C000000,-0724,0828,12253,025.3,045.4,0.480,732.8,01.19,0.508
2014-09-28 01:11:00,1717E-3,5C000000,-0724,0827,12159,025.3,045.4,0.481,732.8,01.19,0.508
2014-09-28 01:12:00,1673E-3,5C000000,-0724,0828,12208,025.3,045.4,0.480,732.7,01.19,0.508
2014-09-28 01:13:00,1753E-3,5C000000,-0724,0828,12438,025.3,045.4,0.481,732.6,01.19,0.508
2014-09-28 01:14:00,1917E-3,5C000000,-0724,0828,12140,025.3,045.4,0.480,732.7,01.19,0.508
2014-09-28 01:15:00,1672E-3,5C000000,-0724,0828,12224,025.3,045.4,0.481,732.8,01.19,0.508
2014-09-28 01:16:00,1817E-3,5C000000,-0724,0827,12040,025.3,045.4,0.480,732.7,01.19,0.508
2014-09-28 01:17:00,1667E-3,5C000000,-0724,0827,12247,025.3,045.4,0.481,732.7,01.19,0.508
2014-09-28 01:18:00,1870E-3,5C000000,-0724,0827,12210,025.3,045.4,0.480,732.7,01.19,0.508
2014-09-28 01:19:00,1734E-3,5C000000,-0724,0828,12341,025.3,045.4,0.481,732.7,01.19,0.508
2014-09-28 01:20:00,1735E-3,5C000000,-0724,0827,12217,025.3,045.4,0.480,732.9,01.19,0.508
2014-09-28 01:21:00,1788E-3,5C000000,-0724,0827,12185,025.3,045.4,0.481,732.7,01.19,0.508
2014-09-28 01:22:00,1726E-3,5C000000,-0724,0828,12307,025.3,045.4,0.480,732.8,01.19,0.508
2014-09-28 01:23:00,1843E-3,5C000000,-0724,0829,12284,025.3,045.4,0.481,732.8,01.19,0.508
2014-09-28 01:24:00,1739E-3,5C000000,-0724,0828,12375,025.3,045.4,0.480,732.8,01.19,0.508
2014-09-28 01:25:00,1852E-3,5C000000,-0724,0828,12312,025.3,045.4,0.481,732.8,01.19,0.508
2014-09-28 01:26:00,1796E-3,5C000000,-0724,0828,12218,025.3,045.4,0.480,732.8,01.19,0.508
2014-09-28 01:27:00,1747E-3,5C000000,-0724,0828,12193,025.2,045.4,0.481,732.9,01.19,0.508
2014-09-28 01:28:00,1919E-3,5C000000,-0724,0827,12174,025.3,045.4,0.481,732.8,01.19,0.508
2014-09-28 01:29:00,1720E-3,5C000000,-0724,0827,12271,025.2,045.4,0.481,732.8,01.19,0.508
2014-09-28 01:30:00,1750E-3,5C000000,-0724,0827,12307,025.3,045.4,0.481,732.8,01.19,0.508
2014-09-28 01:31:00,1681E-3,5C000000,-0724,0827,12037,025.3,045.4,0.481,732.9,01.19,0.508
2014-09-28 01:32:00,1750E-3,5C000000,-0724,0828,12183,025.3,045.4,0.480,732.9,01.19,0.508
2014-09-28 01:33:00,1742E-3,5C000000,-0724,0828,12195,025.3,045.4,0.481,732.8,01.19,0.508
2014-09-28 01:34:00,1751E-3,5C000000,-0724,0828,12367,025.2,045.4,0.481,732.9,01.19,0.508
2014-09-28 01:35:00,1805E-3,5C000000,-0724,0829,12272,025.2,045.4,0.481,732.9,01.19,0.508
2014-09-28 01:36:00,1785E-3,5C000000,-0724,0827,12189,025.3,045.4,0.481,732.8,01.19,0.508
2014-09-28 01:37:00,1821E-3,5C000000,-0724,0828,12190,025.3,045.4,0.481,732.8,01.19,0.508
2014-09-28 01:38:00,1727E-3,5C000000,-0724,0827,12201,025.2,045.4,0.481,732.9,01.19,0.508
2014-09-28 01:39:00,1818E-3,5C000000,-0724,0827,12140,025.2,045.4,0.481,732.8,01.19,0.508
2014-09-28 01:40:00,1937E-3,5C000000,-0724,0828,12418,025.2,045.4,0.481,732.8,01.19,0.508
2014-09-28 01:41:00,1805E-3,5C000000,-0724,0829,12287,025.3,045.4,0.480,732.9,01.19,0.508
2014-09-28 01:42:00,1905E-3,5C000000,-0724,0828,12066,025.2,045.4,0.481,732.8,01.19,0.508
2014-09-28 01:43:00,1827E-3,5C000000,-0724,0827,12101,025.2,045.4,0.480,732.8,01.19,0.508
2014-09-28 01:44:00,1770E-3,5C000000,-0724,0828,12147,025.2,045.4,0.481,732.9,01.19,0.508
2014-09-28 01:45:00,1702E-3,5C000000,-0724,0828,12235,025.2,045.4,0.480,732.9,01.19,0.508
2014-09-28 01:46:00,1732E-3,5C000000,-0724,0829,11983,025.3,045.4,0.481,732.8,01.19,0.508
2014-09-28 01:47:00,1622E-3,5C000000,-0724,0828,12263,025.2,045.4,0.480,733.0,01.19,0.508
2014-09-28 01:48:00,1774E-3,5C000000,-0724,0827,12100,025.2,045.4,0.481,732.8,01.19,0.508
2014-09-28 01:49:00,1740E-3,5C000000,-0724,0827,12182,025.2,045.4,0.480,732.9,01.19,0.508
2014-09-28 01:50:00,1801E-3,5C000000,-0724,0828,12210,025.3,045.4,0.481,733.0,01.19,0.508
2014-09-28 01:51:00,1735E-3,5C000000,-0724,0828,12203,025.3,045.4,0.480,732.9,01.19,0.508
2014-09-28 01:52:00,1806E-3,5C000000,-0724,0828,12139,025.2,045.4,0.481,733.0,01.19,0.508
2014-09-28 01:53:00,1709E-3,5C000000,-0724,0828,12171,025.3,045.4,0.480,732.9,01.19,0.508
2014-09-28 01:54:00,1622E-3,5C000000,-0724,0827,12240,025.2,045.4,0.481,732.9,01.19,0.508
2014-09-28 01:55:00,1814E-3,5C000000,-0724,0828,12392,025.3,045.4,0.480,732.9,01.19,0.508
2014-09-28 01:56:00,1798E-3,5C000000,-0724,0827,12325,025.3,045.4,0.481,732.9,01.19,0.508
2014-09-28 01:57:00,1671E-3,5C000000,-0724,0827,12267,025.2,045.4,0.480,733.0,01.19,0.508
2014-09-28 01:58:00,1723E-3,5C000000,-0724,0827,11949,025.2,045.4,0.481,733.0,01.19,0.508
2014-09-28 01:59:00,1832E-3,5C000000,-0724,0828,12242,025.2,045.4,0.480,732.9,01.19,0.508
2014-09-28 02:00:00,1708E-3,5C000000,-0724,0828,12350,025.3,045.4,0.481,732.9,01.19,0.508
2014-09-28 02:01:00,1778E-3,5C000000,-0724,0828,12207,025.2,045.4,0.480,732.9,01.19,0.508
2014-09-28 02:02:00,1674E-3,5C000000,-0724,0829,12122,025.2,045.4,0.481,733.0,01.19,0.508
2014-09-28 02:03:00,1731E-3,5C000000,-0724,0829,12254,025.2,045.4,0.480,733.1,01.19,0.508
2014-09-28 02:04:00,1830E-3,5C000000,-0724,0829,12309,025.2,045.4,0.481,733.1,01.19,0.508
2014-09-28 02:05:00,1765E-3,5C000000,-0724,0827,12225,025.2,045.4,0.481,733.1,01.19,0.508
2014-09-28 02:06:00,1770E-3,5C000000,-0724,0828,12256,025.3,045.4,0.481,733.1,01.19,0.508
2014-09-28 02:07:00,1860E-3,5C000000,-0724,0828,12264,025.3,045.4,0.481,733.1,01.19,0.508
2014-09-28 02:08:00,1748E-3,5C000000,-0724,0828,12058,025.3,045.4,0.481,733.2,01.19,0.508
2014-09-28 02:09:00,1738E-3,5C000000,-0724,0828,12263,025.3,045.4,0.480,733.2,01.19,0.508
2014-09-28 02:10:00,1838E-3,5C000000,-0724,0828,12314,025.2,045.4,0.481,733.1,01.19,0.508
2014-09-28 02:11:00,1697E-3,5C000000,-0724,0828,12238,025.2,045.4,0.481,733.1,01.19,0.508
2014-09-28 02:12:00,1945E-3,5C000000,-0724,0828,12297,025.2,045.4,0.481,733.1,01.19,0.508
2014-09-28 02:13:00,1774E-3,5C000000,-0724,0827,11803,025.3,045.4,0.480,733.2,01.19,0.508
2014-09-28 02:14:00,1922E-3,5C000000,-0724,0827,12189,025.2,045.4,0.481,733.1,01.19,0.508
2014-09-28 02:15:00,1749E-3,5C000000,-0724,0827,12060,025.2,045.4,0.480,733.2,01.19,0.508
2014-09-28 02:16:00,1796E-3,5C000000,-0724,0827,12320,025.2,045.4,0.481,733.2,01.19,0.508
2014-09-28 02:17:00,1848E-3,5C000000,-0724,0828,12308,025.2,045.4,0.481,733.2,01.19,0.508
2014-09-28 02:18:00,1988E-3,5C000000,-0724,0828,12205,025.2,045.4,0.481,733.2,01.19,0.508
2014-09-28 02:19:00,1696E-3,5C000000,-0724,0827,12366,025.3,045.4,0.481,733.2,01.19,0.508
2014-09-28 02:20:00,1862E-3,5C000000,-0724,0828,12262,025.3,045.4,0.481,733.2,01.19,0.508
2014-09-28 02:21:00,1700E-3,5C000000,-0724,0827,12278,025.2,045.4,0.481,733.2,01.19,0.508
2014-09-28 02:22:00,1747E-3,5C000000,-0724,0828,12249,025.3,045.4,0.481,733.3,01.19,0.508
2014-09-28 02:23:00,1649E-3,5C000000,-0724,0827,12206,025.3,045.4,0.481,733.2,01.19,0.508
2014-09-28 02:24:00,1904E-3,5C000000,-0724,0829,12277,025.3,045.4,0.481,733.3,01.19,0.508
2014-09-28 02:25:00,1792E-3,5C000000,-0724,0828,12195,025.3,045.4,0.481,733.3,01.19,0.508
2014-09-28 02:26:00,1803E-3,5C000000,-0724,0828,12148,025.3,045.4,0.481,733.3,01.19,0.508
2014-09-28 02:27:00,1882E-3,5C000000,-0724,0828,11953,025.3,045.4,0.481,733.3,01.19,0.508
2014-09-28 02:28:00,1663E-3,5C000000,-0724,0829,12141,025.3,045.4,0.480,733.2,01.19,0.508
2014-09-28 02:29:00,1767E-3,5C000000,-0724,0828,12286,025.3,045.4,0.481,733.2,01.19,0.508
2014-09-28 02:30:00,1828E-3,5C000000,-0724,0828,12216,025.3,045.4,0.480,733.3,01.19,0.508
2014-09-28 02:31:00,1831E-3,5C000000,-0724,0827,12173,025.3,045.4,0.481,733.3,01.19,0.508
2014-09-28 02:32:00,1830E-3,5C000000,-0724,0827,12192,025.3,045.4,0.480,733.3,01.19,0.508
2014-09-28 02:33:00,1788E-3,5C000000,-0724,0828,12115,025.2,045.4,0.481,733.2,01.19,0.508
2014-09-28 02:34:00,1852E-3,5C000000,-0724,0828,12186,025.3,045.4,0.480,733.3,01.19,0.508
2014-09-28 02:35:00,1825E-3,5C000000,-0724,0828,12253,025.3,045.4,0.481,733.3,01.19,0.508
2014-09-28 02:36:00,1687E-3,5C000000,-0724,0828,12313,025.3,045.4,0.481,733.3,01.19,0.508
2014-09-28 02:37:00,1889E-3,5C000000,-0724,0828,12314,025.3,045.4,0.481,733.3,01.19,0.508
2014-09-28 02:38:00,1907E-3,5C000000,-0724,0828,12344,025.3,045.4,0.481,733.3,01.19,0.508
2014-09-28 02:39:00,1829E-3,5C000000,-0724,0827,12277,025.3,045.4,0.481,733.3,01.19,0.508
2014-09-28 02:40:00,1822E-3,5C000000,-0724,0827,12418,025.3,045.4,0.481,733.3,01.19,0.508
2014-09-28 02:41:00,1708E-3,5C000000,-0724,0827,12392,025.3,045.4,0.481,733.3,01.19,0.508
2014-09-28 02:42:00,1722E-3,5C000000,-0724,0829,12303,025.3,045.4,0.481,733.3,01.19,0.508
2014-09-28 02:43:00,1667E-3,5C000000,-0724,0828,12357,025.3,045.4,0.480,733.4,01.19,0.508
2014-09-28 02:44:00,1841E-3,5C000000,-0724,0827,12062,025.3,045.4,0.481,733.4,01.19,0.508
2014-09-28 02:45:00,1844E-3,5C000000,-0724,0826,12267,025.3,045.4,0.481,733.4,01.19,0.508
2014-09-28 02:46:00,1855E-3,5C000000,-0724,0828,12393,025.3,045.4,0.481,733.5,01.19,0.508
2014-09-28 02:47:00,1864E-3,5C000000,-0724,0828,12374,025.3,045.4,0.480,733.4,01.19,0.508
2014-09-28 02:48:00,1767E-3,5C000000,-0724,0828,12222,025.3,045.4,0.481,733.5,01.19,0.508
2014-09-28 02:49:00,1725E-3,5C000000,-0724,0827,11997,025.3,045.4,0.481,733.5,01.19,0.508
2014-09-28 02:50:00,1684E-3,5C000000,-0724,0828,12229,025.3,045.4,0.481,733.5,01.19,0.508
2014-09-28 02:51:00,1796E-3,5C000000,-0724,0828,12034,025.3,045.4,0.481,733.5,01.19,0.508
2014-09-28 02:52:00,1868E-3,5C000000,-0724,0829,12094,025.3,045.4,0.481,733.5,01.19,0.508
2014-09-28 02:53:00,1738E-3,5C000000,-0724,0828,12024,025.3,045.4,0.481,733.5,01.19,0.508
2014-09-28 02:54:00,1775E-3,5C000000,-0724,0828,12207,025.3,045.4,0.480,733.5,01.19,0.508
2014-09-28 02:55:00,1787E-3,5C000000,-0724,0827,12299,025.3,045.4,0.481,733.5,01.19,0.508
2014-09-28 02:56:00,1815E-3,5C000000,-0724,0827,12040,025.3,045.4,0.480,733.5,01.19,0.508
2014-09-28 02:57:00,1809E-3,5C000000,-0724,0829,12217,025.3,045.4,0.481,733.5,01.19,0.508
2014-09-28 02:58:00,1892E-3,5C000000,-0724,0828,12303,025.3,045.4,0.481,733.5,01.19,0.508
2014-09-28 02:59:00,1796E-3,5C000000,-0724,0828,12245,025.3,045.4,0.481,733.5,01.19,0.508
2014-09-28 03:00:00,1881E-3,5C000000,-0724,0827,12322,025.3,045.4,0.481,733.5,01.19,0.508
2014-09-28 03:01:00,1747E-3,5C000000,-0724,0828,12341,025.3,045.4,0.481,733.5,01.19,0.508
2014-09-28 03:02:00,1818E-3,5C000000,-0724,0827,12245,025.3,045.4,0.481,733.6,01.19,0.508
2014-09-28 03:03:00,1726E-3,5C000000,-0724,0827,12065,025.3,045.4,0.480,733.5,01.19,0.508
2014-09-28 03:04:00,1867E-3,5C000000,-0724,0828,12173,025.3,045.4,0.481,733.5,01.19,0.508
2014-09-28 03:05:00,1853E-3,5C000000,-0724,0828,11922,025.3,045.4,0.481,733.5,01.19,0.508
2014-09-28 03:06:00,1726E-3,5C000000,-0724,0827,12234,025.3,045.4,0.481,733.5,01.19,0.508
2014-09-28 03:07:00,2054E-3,5C000000,-0724,0827,12256,025.3,045.4,0.481,733.6,01.19,0.508
2014-09-28 03:08:00,1749E-3,5C000000,-0724,0828,12211,025.3,045.4,0.481,733.6,01.19,0.508
2014-09-28 03:09:00,1949E-3,5C000000,-0724,0828,12261,025.3,045.4,0.481,733.6,01.19,0.508
2014-09-28 03:10:00,1954E-3,5C000000,-0724,0828,12162,025.3,045.4,0.480,733.6,01.19,0.508
2014-09-28 03:11:00,1934E-3,5C000000,-0724,0827,12089,025.3,045.4,0.481,733.6,01.19,0.508
2014-09-28 03:12:00,1855E-3,5C000000,-0724,0828,12301,025.3,045.4,0.480,733.6,01.19,0.508
2014-09-28 03:13:00,1865E-3,5C000000,-0724,0827,12246,025.3,045.4,0.481,733.6,01.19,0.508
2014-09-28 03:14:00,1747E-3,5C000000,-0724,0829,12192,025.3,045.4,0.481,733.6,01.19,0.508
2014-09-28 03:15:00,1757E-3,5C000000,-0724,0827,12150,025.3,045.4,0.481,733.6,01.19,0.508
2014-09-28 03:16:00,1769E-3,5C000000,-0724,0827,12247,025.4,045.4,0.481,733.7,01.19,0.508
2014-09-28 03:17:00,1739E-3,5C000000,-0724,0827,12262,025.3,045.4,0.480,733.7,01.19,0.508
2014-09-28 03:18:00,2095E-3,5C000000,-0724,0828,12186,025.3,045.4,0.481,733.7,01.19,0.508
2014-09-28 03:19:00,2011E-3,5C000000,-0724,0828,12460,025.3,045.4,0.481,733.7,01.19,0.508
2014-09-28 03:20:00,2030E-3,5C000000,-0724,0828,12049,025.3,045.4,0.481,733.7,01.19,0.508
2014-09-28 03:21:00,2127E-3,5C000000,-0724,0828,12316,025.3,045.4,0.481,733.7,01.19,0.508
2014-09-28 03:22:00,1893E-3,5C000000,-0724,0828,12229,025.3,045.4,0.480,733.7,01.19,0.508
2014-09-28 03:23:00,1938E-3,5C000000,-0724,0828,12330,025.4,045.4,0.481,733.7,01.19,0.508
2014-09-28 03:24:00,2069E-3,5C000000,-0724,0829,12339,025.4,045.4,0.481,733.7,01.19,0.508
2014-09-28 03:25:00,2073E-3,5C000000,-0724,0828,12190,025.4,045.4,0.481,733.7,01.19,0.508
2014-09-28 03:26:00,2364E-3,5C000000,-0724,0828,12310,025.3,045.4,0.481,733.7,01.19,0.508
2014-09-28 03:27:00,2141E-3,5C000000,-0724,0828,12244,025.4,045.4,0.481,733.7,01.19,0.508
2014-09-28 03:28:00,2241E-3,5C000000,-0724,0827,12120,025.3,045.4,0.481,733.7,01.19,0.508
2014-09-28 03:29:00,2456E-3,5C000000,-0724,0829,12375,025.4,045.4,0.480,733.7,01.19,0.508
2014-09-28 03:30:00,2460E-3,5C000000,-0724,0828,12267,025.4,045.4,0.481,733.7,01.19,0.508
2014-09-28 03:31:00,2582E-3,5C000000,-0724,0828,12294,025.4,045.4,0.481,733.7,01.19,0.508
2014-09-28 03:32:00,2520E-3,5C000000,-0724,0827,12187,025.4,045.4,0.481,733.7,01.19,0.508
2014-09-28 03:33:00,2088E-3,5C000000,-0724,0828,12107,025.4,045.4,0.481,733.7,01.19,0.508
2014-09-28 03:34:00,2018E-3,5C000000,-0724,0828,11955,025.4,045.4,0.480,733.7,01.19,0.508
2014-09-28 03:35:00,1918E-3,5C000000,-0724,0827,12335,025.4,045.4,0.481,733.8,01.19,0.508
2014-09-28 03:36:00,1982E-3,5C000000,-0724,0827,12213,025.4,045.4,0.481,733.8,01.19,0.508
2014-09-28 03:37:00,1988E-3,5C000000,-0724,0827,12336,025.4,045.4,0.480,733.7,01.19,0.508
2014-09-28 03:38:00,1894E-3,5C000000,-0724,0827,12271,025.4,045.4,0.481,733.7,01.19,0.508
2014-09-28 03:39:00,1887E-3,5C000000,-0724,0828,12277,025.4,045.4,0.480,733.8,01.19,0.508
2014-09-28 03:40:00,2237E-3,5C000000,-0724,0827,12247,025.4,045.4,0.481,733.8,01.19,0.508
2014-09-28 03:41:00,2260E-3,5C000000,-0724,0828,12271,025.4,045.4,0.481,733.8,01.19,0.508
2014-09-28 03:42:00,1984E-3,5C000000,-0724,0827,12135,025.4,045.4,0.480,733.8,01.19,0.508
2014-09-28 03:43:00,2214E-3,5C000000,-0724,0828,12369,025.4,045.4,0.481,733.8,01.19,0.508
2014-09-28 03:44:00,2322E-3,5C000000,-0724,0827,12281,025.4,045.4,0.481,733.7,01.19,0.508
2014-09-28 03:45:00,2220E-3,5C000000,-0724,0828,12361,025.4,045.4,0.481,733.8,01.19,0.508
2014-09-28 03:46:00,2078E-3,5C000000,-0724,0827,12328,025.4,045.4,0.481,733.7,01.19,0.508
2014-09-28 03:47:00,2201E-3,5C000000,-0724,0827,12191,025.4,045.4,0.480,733.8,01.19,0.508
2014-09-28 03:48:00,2307E-3,5C000000,-0724,0828,12057,025.4,045.4,0.481,733.8,01.19,0.508
2014-09-28 03:49:00,2636E-3,5C000000,-0724,0827,12153,025.4,045.4,0.481,733.8,01.19,0.508
2014-09-28 03:50:00,2527E-3,5C000000,-0724,0828,12329,025.4,045.4,0.480,733.8,01.19,0.508
2014-09-28 03:51:00,2115E-3,5C000000,-0724,0827,12296,025.4,045.4,0.481,733.8,01.19,0.508
2014-09-28 03:52:00,2067E-3,5C000000,-0724,0827,12327,025.4,045.4,0.481,733.9,01.19,0.508
2014-09-28 03:53:00,1863E-3,5C000000,-0724,0827,12224,025.4,045.4,0.481,733.8,01.19,0.508
2014-09-28 03:54:00,2192E-3,5C000000,-0724,0827,12316,025.4,045.4,0.481,733.9,01.19,0.508
2014-09-28 03:55:00,2430E-3,5C000000,-0724,0828,12134,025.4,045.4,0.480,733.9,01.19,0.508
2014-09-28 03:56:00,2311E-3,5C000000,-0724,0828,12253,025.4,045.4,0.481,733.9,01.19,0.508
2014-09-28 03:57:00,2053E-3,5C000000,-0724,0828,12286,025.4,045.4,0.481,733.8,01.19,0.508
2014-09-28 03:58:00,1646E-3,5C000000,-0724,0828,12366,025.4,045.4,0.480,733.9,01.19,0.508
2014-09-28 03:59:00,1823E-3,5C000000,-0724,0828,12225,025.4,045.4,0.481,733.9,01.19,0.508
2014-09-28 04:00:00,1676E-3,5C000000,-0724,0827,12219,025.4,045.4,0.481,733.9,01.19,0.508
2014-09-28 04:01:00,1898E-3,5C000000,-0724,0828,12065,025.4,045.4,0.480,733.9,01.19,0.508
2014-09-28 04:02:00,1820E-3,5C000000,-0724,0829,12335,025.4,045.4,0.481,733.9,01.19,0.508
2014-09-28 04:03:00,1805E-3,5C000000,-0724,0828,12031,025.4,045.4,0.481,733.9,01.19,0.508
2014-09-28 04:04:00,1848E-3,5C000000,-0724,0830,12375,025.4,045.4,0.481,734.0,01.19,0.508
2014-09-28 04:05:00,1870E-3,5C000000,-0724,0827,12232,025.4,045.4,0.481,734.0,01.19,0.508
2014-09-28 04:06:00,1899E-3,5C000000,-0724,0828,12273,025.4,045.4,0.481,734.0,01.19,0.508
2014-09-28 04:07:00,1725E-3,5C000000,-0724,0828,12407,025.5,045.4,0.481,734.0,01.19,0.508
2014-09-28 04:08:00,1838E-3,5C000000,-0724,0827,12120,025.4,045.4,0.481,734.0,01.19,0.508
2014-09-28 04:09:00,1830E-3,5C000000,-0724,0828,12343,025.5,045.4,0.480,734.0,01.19,0.508
2014-09-28 04:10:00,1849E-3,5C000000,-0724,0828,12294,025.5,045.4,0.481,734.0,01.19,0.508
2014-09-28 04:11:00,1756E-3,5C000000,-0724,0828,12240,025.4,045.4,0.481,734.1,01.19,0.508
2014-09-28 04:12:00,1797E-3,5C000000,-0724,0827,12304,025.5,045.4,0.481,734.1,01.19,0.508
2014-09-28 04:13:00,1812E-3,5C000000,-0724,0828,12340,025.5,045.4,0.481,734.1,01.19,0.508
2014-09-28 04:14:00,1935E-3,5C000000,-0724,0828,12052,025.5,045.4,0.481,734.1,01.19,0.508
2014-09-28 04:15:00,1777E-3,5C000000,-0724,0828,12331,025.5,045.4,0.480,734.1,01.19,0.508
2014-09-28 04:16:00,1790E-3,5C000000,-0724,0827,12305,025.4,045.4,0.481,734.1,01.19,0.508
2014-09-28 04:17:00,1779E-3,5C000000,-0724,0828,12274,025.5,045.4,0.481,734.1,01.19,0.508
2014-09-28 04:18:00,1728E-3,5C000000,-0724,0828,12054,025.5,045.4,0.481,734.1,01.19,0.508
2014-09-28 04:19:00,1723E-3,5C000000,-0724,0829,12223,025.5,045.4,0.481,734.1,01.19,0.508
2014-09-28 04:20:00,1849E-3,5C000000,-0724,0828,12131,025.5,045.4,0.481,734.2,01.18,0.508